Location: Namasale
(1.5000°N, 32.6167°E)
Time: 19:37:12
(UTC+00:00)

Courier 1B - Pass Details

Date: 19 April 2021
Orbit: 962 x 1209 km, 28.3° (Epoch: 10 May)

Event Time Altitude Azimuth Distance (km) Brightness Sun altitude
Rises 04:58:54 0° 221° (SW) 4,040 10.3 17.5°
Reaches altitude 10° 05:02:16 10° 209° (SSW) 3,043 9.8 18.3°
Maximum altitude 05:08:27 28° 153° (SSE) 1,959 9.5 19.8°
Drops below altitude 10° 05:14:21 10° 97° (E) 2,887 11.6 21.3°
Sets 05:17:26 0° 85° (E) 3,799 12.1 22.0°
